TimeEDT,TemperatureF,Dew PointF,Humidity,Sea Level PressureIn,VisibilityMPH,Wind Direction,Wind SpeedMPH,Gust SpeedMPH,PrecipitationIn,Events,Conditions,WindDirDegrees,DateUTC
12:56 AM,57.9,55.0,90,29.94,10.0,NNW,5.8,-,0.00,,Overcast,330,2013-03-19 04:56:00
1:56 AM,57.9,55.9,93,29.92,10.0,SW,8.1,-,0.01,Rain,Light Rain,220,2013-03-19 05:56:00
2:56 AM,57.9,55.9,93,29.88,10.0,SW,5.8,18.4,0.01,,Overcast,230,2013-03-19 06:56:00
3:07 AM,57.2,55.4,94,29.89,10.0,Variable,6.9,-,N/A,,Overcast,0,2013-03-19 07:07:00
3:37 AM,57.2,55.4,94,29.88,10.0,Calm,Calm,-,N/A,,Mostly Cloudy,0,2013-03-19 07:37:00
3:51 AM,57.2,55.4,94,29.88,10.0,WSW,6.9,-,N/A,,Scattered Clouds,250,2013-03-19 07:51:00
3:56 AM,57.9,55.0,90,29.87,10.0,Calm,Calm,-,N/A,,Partly Cloudy,0,2013-03-19 07:56:00
4:56 AM,57.0,55.0,93,29.84,10.0,Calm,Calm,-,N/A,,Clear,0,2013-03-19 08:56:00
5:35 AM,55.4,53.6,94,29.86,1.8,WNW,3.5,-,N/A,,Clear,300,2013-03-19 09:35:00
5:40 AM,55.4,53.6,94,29.87,3.0,West,5.8,-,N/A,,Clear,270,2013-03-19 09:40:00
5:56 AM,54.0,53.1,97,29.88,4.0,WSW,3.5,-,N/A,,Clear,240,2013-03-19 09:56:00
6:56 AM,55.9,54.0,93,29.91,9.0,WNW,8.1,-,N/A,,Clear,290,2013-03-19 10:56:00
7:22 AM,57.2,53.6,88,29.93,10.0,WNW,5.8,-,N/A,,Mostly Cloudy,300,2013-03-19 11:22:00
7:56 AM,57.0,54.0,89,29.90,10.0,Calm,Calm,-,N/A,,Mostly Cloudy,0,2013-03-19 11:56:00
8:56 AM,59.0,55.0,87,29.93,10.0,WNW,6.9,-,N/A,,Mostly Cloudy,300,2013-03-19 12:56:00
9:47 AM,60.8,55.4,82,29.94,10.0,NW,11.5,18.4,N/A,,Mostly Cloudy,320,2013-03-19 13:47:00
9:56 AM,60.1,55.9,86,29.94,10.0,NW,13.8,18.4,N/A,,Mostly Cloudy,310,2013-03-19 13:56:00
10:02 AM,60.8,55.4,82,29.94,10.0,NW,11.5,-,N/A,,Mostly Cloudy,310,2013-03-19 14:02:00
10:30 AM,60.8,55.4,82,29.95,10.0,WNW,11.5,-,N/A,,Mostly Cloudy,300,2013-03-19 14:30:00
10:52 AM,62.6,55.4,77,29.95,10.0,WNW,10.4,-,N/A,,Mostly Cloudy,300,2013-03-19 14:52:00
10:56 AM,63.0,55.0,75,29.95,10.0,WNW,10.4,-,N/A,,Mostly Cloudy,300,2013-03-19 14:56:00
11:56 AM,66.9,55.0,66,29.98,10.0,NNW,13.8,-,N/A,,Mostly Cloudy,330,2013-03-19 15:56:00
12:24 PM,68.0,53.6,60,29.97,10.0,NNW,11.5,-,N/A,,Scattered Clouds,330,2013-03-19 16:24:00
12:56 PM,69.1,53.1,57,29.96,10.0,NNW,13.8,19.6,N/A,,Scattered Clouds,340,2013-03-19 16:56:00
1:56 PM,72.0,52.0,49,29.95,10.0,NNW,9.2,17.3,N/A,,Scattered Clouds,330,2013-03-19 17:56:00
2:56 PM,73.9,50.0,43,29.93,10.0,WNW,13.8,19.6,N/A,,Partly Cloudy,300,2013-03-19 18:56:00
3:56 PM,73.9,45.0,35,29.92,10.0,WNW,12.7,-,N/A,,Clear,300,2013-03-19 19:56:00
4:56 PM,75.9,39.0,26,29.93,10.0,West,13.8,23.0,N/A,,Clear,280,2013-03-19 20:56:00
5:56 PM,75.9,34.0,22,29.93,10.0,NW,8.1,-,N/A,,Clear,310,2013-03-19 21:56:00
6:56 PM,73.9,28.9,19,29.94,10.0,NW,6.9,-,N/A,,Clear,320,2013-03-19 22:56:00
7:56 PM,68.0,32.0,26,29.96,10.0,NW,3.5,-,N/A,,Clear,320,2013-03-19 23:56:00
8:56 PM,66.0,32.0,28,29.98,10.0,NNW,5.8,-,N/A,,Clear,330,2013-03-20 00:56:00
9:56 PM,63.0,33.1,33,29.99,10.0,North,4.6,-,N/A,,Clear,350,2013-03-20 01:56:00
10:56 PM,59.0,35.1,41,30.02,10.0,NNW,4.6,-,N/A,,Clear,330,2013-03-20 02:56:00
11:56 PM,59.0,28.9,32,30.02,10.0,North,5.8,-,N/A,,Clear,350,2013-03-20 03:56:00